Погода в Лозовском

Россия / Курская область     51°38′39″N   35°49′12″E
темп.,
°C
ветер,
м/с
пор.,
м/с
влажн.,
%
обл.,
%
осадки,
мм/ч
давл.,
гПа
погр.,
м
28 ноября, вс
вс2800:00+5ю5119882 0.0 1004280
03:00+4ююз369774 0.0 1004120
06:00+3юз239847 0.0 100544
09:00+3ююз229824 0.0 100732
12:00+6ююз238913 0.0 1008185
15:00+7юв23885 0.0 100879
18:00+4юв489580 0.0 1008168
21:00+4юв41196100 0.0 1008257
29 ноября, пн
пн2900:00+5юв41196100 0.0 1007268
03:00+5вюв4996100 0.1 1005185
06:00+5в379798 0.0 1003143
09:00+5в3599100 0.3 1001137
12:00+6юв2699100 0.0 999215
15:00+8ююв51198100 0.0 997485
18:00+8вюв51097100 2.4 992347
21:00+9юв51198100 5.4 985490
30 ноября, вт
вт3000:00+8з4999100 10.4 980368
03:00+9юз81493100 15.4 980765
06:00+2юз132090100 2.5 983907
09:00+1зюз142396100 3.7 9861310
12:00+2зюз132179100 1.6 9901150
15:00+2зюз111773100 1.6 9921250
18:00+1юз9167594 0.1 9941204
21:00−1зюз8148386 0.2 995833
1 декабря, ср
ср100:00−1з71280100 0.1 995861
03:00−1з71176100 0.1 996974
06:00−2з61076100 0.1 9961032
09:00−2з5973100 0.1 9971103
12:00−1юз5890100 0.3 997671
15:00−1юз4694100 1.2 997517
18:00−2зюз369873 0.3 998242
21:00−3з499623 0.3 1001327
2 декабря, чт
чт200:00−4з38905 0.0 1003310
03:00−3юз489599 0.0 1004334
06:00−2ююз51286100 0.0 1003481
09:000ююз71498100 0.6 1002744
12:00+2юз81698100 0.6 1002746
15:00+3юз71487100 0.8 1002601
18:00+3юз61390100 0.0 1003455
21:00+2юз61390100 0.0 1004393